Regional Weather Roundup
Issued by NWS Cleveland, OH

Home | Current Version | Previous Version | Graphics & Text | Print | Product List | Glossary On
Versions: 1 2 3 4 5 6 7 8 9 10 11 12 13 14 15 16 17 18 19 20 21 22 23 24 25 26 27 28 29 30 31 32 33 34 35 36 37 38 39 40 41 42 43 44 45 46 47 48 49 50
000
ASUS41 KCLE 030410
RWRCLE
OHIO REGIONAL WEATHER ROUNDUP
NATIONAL WEATHER SERVICE CLEVELAND, OH
1200 AM EDT WED JUN 03 2015

NOTE: "FAIR" INDICATES FEW OR NO CLOUDS BELOW 12,000 FEET WITH NO
SIGNIFICANT WEATHER AND/OR OBSTRUCTIONS TO VISIBILITY.

OHZ001>008-015>018-024>027-034-035-043-044-030500-
   NORTHWEST OHIO

CITY           SKY/WX    TMP DP  RH WIND       PRES   REMARKS
DEFIANCE       CLEAR     53  44  71 N5        30.14S
FINDLAY        PTCLDY    56  49  77 E8        30.12F
TOLEDO EXPRESS CLEAR     50  46  86 CALM      30.14S
TOLEDO EXEC    CLEAR     55  48  77 NE5       30.15F
LIMA           PTCLDY    53  49  86 E6        30.12F
$$

OHZ009>014-019>023-028>033-038-089-030500-
   NORTHEAST OHIO

CITY           SKY/WX    TMP DP  RH WIND       PRES   REMARKS
CLE-HOPKINS    PTCLDY    57  49  74 E3        30.15S
CLE-LAKEFRONT  CLEAR     59  46  62 E3        30.13S
CUY CO. ARPT   NOT AVBL
LORAIN-ELYRIA  CLEAR     54  50  86 CALM      30.14F
ASHTABULA      CLEAR     53  45  74 E5        30.16S
AKRON-CANTON   MOCLDY    58  52  80 E6        30.14S
WOOSTER        MOCLDY    55  53  93 CALM      30.14S
MANSFIELD      CLEAR     54  53  97 CALM      30.14S
YOUNGSTOWN     PTCLDY    50  49  96 E5        30.14F
$$

OHZ042-051>053-060>062-070>072-077>081-030500-
  SOUTHWEST OHIO

CITY           SKY/WX    TMP DP  RH WIND       PRES   REMARKS
CINC-COVINGTON CLOUDY    59  53  80 N3        30.11S
CINC-LUNKEN    CLOUDY    58  55  90 E3        30.12S
HAMILTON       CLEAR     53  52  96 CALM      30.12S
DAYTON         PTCLDY    57  52  83 E7        30.12S
WRIGHT-PAT AFB MOCLDY    56  53  92 CALM      30.11F
DAYTON GENERAL CLOUDY    56  53  90 SE3       30.11S
WILMINGTON     CLEAR     53  50  89 NE3       30.12S FOG
$$

OHZ036-037-039>041-045>050-054>059-063>069-073>076-082>088-030500-
  CENTRAL AND SOUTHEAST OHIO

CITY           SKY/WX    TMP DP  RH WIND       PRES   REMARKS
COLUMBUS       CLOUDY    59  53  80 CALM      30.12S
OSU AIRPORT    CLOUDY    58  53  84 CALM      30.12S
BOLTON FIELD   NOT AVBL
RICKENBACK AFB CLOUDY    58  53  81 CALM      30.11S
NEWARK         CLOUDY    60  53  77 CALM      30.11F
MARION         PTCLDY    57  52  83 CALM      30.14S
LANCASTER      CLOUDY    59  54  83 N3        30.12S
ZANESVILLE     NOT AVBL
NEW PHILLY     CLEAR     55  51  86 CALM      30.14S
$$



USA.gov is the U.S. government's official web portal to all federal, state and local government web resources and services.